Hourly Data Report for March 31, 2021

TORONTO CITY
ONTARIO
Current Station Operator: ECCC - MSC

43°40'00.000" N
79°24'00.000" W
112.50 m
6158355
71508
XTO

Download Data

Hourly Data (March 2021)
Hourly Data Report for March 31, 2021
TIME
LST
Temp Definition
°C
Dew Point Definition
°C
Rel Hum Definition
%
Precip. Amount Definition
mm

Wind Dir Definition
10's deg

Wind Spd Definition
km/h
Visibility Definition
km
Stn Press Definition
kPa
Hmdx Definition


Wind Chill Definition


Weather Definition


00:00 14.9 0.8 38 0.0       99.68     LegendNANA
01:00 14.3 0.6 39 0.0       99.65     LegendNANA
02:00 13.9 0.6 40 0.0       99.62     LegendNANA
03:00 13.1 1.6 45 0.0       99.55     LegendNANA
04:00 12.4 2.2 50 0.0       99.57     LegendNANA
05:00 12.2 2.7 52 0.0       99.59     LegendNANA
06:00 13.1 7.9 71 0.0       99.59     LegendNANA
07:00 9.9 4.8 71 0.0       99.66     LegendNANA
08:00 7.3 4.5 82 0.0       99.78     LegendNANA
09:00 7.7 4.1 78 0.0       99.83     LegendNANA
10:00 7.8 4.6 81 0.0       99.87     LegendNANA
11:00 7.9 4.2 77 0.0       99.94     LegendNANA
12:00 8.1 2.8 69 0.0       99.99     LegendNANA
13:00 9.6 0.7 54 0.0       100.05     LegendNANA
14:00 10.7 -1.5 42 0.0       100.05     LegendNANA
15:00 11.0 -1.8 41 0.0       100.04     LegendNANA
16:00 10.8 -3.0 38 0.0       100.06     LegendNANA
17:00 9.9 -3.3 39 0.0       100.13     LegendNANA
18:00 7.4 -3.7 45 0.0       100.26     LegendNANA
19:00 5.9 -3.9 49 0.0       100.38     LegendNANA
20:00 4.8 -4.2 52 0.0       100.47     LegendNANA
21:00 3.9 -3.5 58 0.0       100.42     LegendNANA
22:00 2.9 -4.9 57 0.0       100.39     LegendNANA
23:00 2.4 -5.4 56 0.0       100.47     LegendNANA

Notes on Data Quality.

Legend

  • E = Estimated
  • M = Missing
  • NA = Not Available*
  • [empty] = Indicates an unobserved value
Date modified: